Tracking 18647 objects as of 29-May-2017
HD Live streaming from Space Station
objects crossing your sky now

COSMOS 2418 (GLONASS)

Track COSMOS 2418 (GLONASS) now!
COSMOS 2418 (GLONASS) is classified as:


NORAD ID: 28916
Int'l Code: 2005-050B
Perigee: 19,095.9 km
Apogee: 19,177.9 km
Inclination: 65.5 °
Period: 675.7 minutes
Semi major axis: 25507 km
RCS: 3.9905 m2 (large)
Launch date: December 25, 2005
Source: Commonwealth of Independent States (former USSR) (CIS)
Launch site: TYURATAM MISSILE AND SPACE COMPLEX (TTMTR)
SV:
Your satellite tracking list
Your tracking list is empty





NASA's NSSDC Master Catalog

Two Line Element Set (TLE):
1 28916U 05050B   17146.91998263 -.00000031 +00000-0 +00000-0 0  9997
2 28916 065.5030 066.6632 0016078 327.4102 032.4996 02.13103958088851
Source of the keplerian elements: AFSPC